DW7160 La Colilla ES current weather conditions

sailwx.info

Wind from 209 at 1 knots gusting 4

Air temperature 1.7° C
Dewpoint -1.1° C

Last reported at 2017-Dec-12 19:00 UTC.
Time now 2017-Dec-12 20:08 UTC

Location: N 40°39' W 004°46'.
View on Google Maps.

See reports from other nearby stations

  
Tides and Currents Weather Stations Pressure Air Temp Water Temp Dewpoint Dewpoint Depression Visibility Wind Speed Wind Dir Waves Ship Positions
date/time (UTC)wind fromknots sea level pressurealtimeterstation pressurevisibilityair tempwater tempwave heightnotes
2017-Dec-12 19:10 202 2 gusting 4 1.7
2017-Dec-12 19:00 209 1 gusting 4 1.7
2017-Dec-12 18:50 241 0 gusting 3 2.2
2017-Dec-12 18:40 265 1.7
2017-Dec-12 18:30 273 0 gusting 2 1.7
2017-Dec-12 18:20 271 0 gusting 3 1.7
2017-Dec-12 18:10 262 0 gusting 3 2.2
2017-Dec-12 18:00 266 0 gusting 4 1.7
2017-Dec-12 17:50 255 2.2
2017-Dec-12 17:40 259 0 gusting 2 2.2
2017-Dec-12 17:30 261 2.2
2017-Dec-12 17:20 269 0 gusting 3 2.2
2017-Dec-12 17:10 279 2.2
2017-Dec-12 17:00 278 2.2
2017-Dec-12 16:50 275 2.8
2017-Dec-12 16:40 275 0 gusting 3 2.8
2017-Dec-12 16:30 275 2.8
2017-Dec-12 16:20 274 3.3
2017-Dec-12 16:10 278 0 gusting 2 3.9
2017-Dec-12 16:00 292 0 gusting 2 3.9
2017-Dec-12 15:50 287 0 gusting 4 3.9
2017-Dec-12 15:40 290 3.9
2017-Dec-12 15:30 312 0 gusting 4 3.9
2017-Dec-12 15:20 337 1 gusting 5 3.9
2017-Dec-12 15:10 318 1 gusting 5 4.4
2017-Dec-12 15:00 347 2 gusting 5 4.4
2017-Dec-12 14:50 348 1 gusting 5 3.9
2017-Dec-12 14:40 338 2 gusting 6 4.4
2017-Dec-12 14:30 339 1 gusting 6 3.9
2017-Dec-12 14:20 322 1 gusting 5 4.4
2017-Dec-12 14:10 327 1 gusting 6 4.4
2017-Dec-12 14:00 300 1 gusting 5 5.0
2017-Dec-12 13:50 308 0 gusting 4 4.4
2017-Dec-12 13:40 298 0 gusting 4 4.4
2017-Dec-12 13:30 304 1 gusting 5 4.4
2017-Dec-12 13:20 319 1 gusting 5 4.4
2017-Dec-12 13:10 321 1 gusting 5 4.4
2017-Dec-12 13:00 317 1 gusting 5 4.4
2017-Dec-12 12:50 307 1 gusting 7 4.4
2017-Dec-12 12:40 311 2 gusting 8 4.4
2017-Dec-12 12:30 329 2 gusting 6 4.4
2017-Dec-12 12:20 350 3 gusting 7 3.9
2017-Dec-12 12:10 342 3 gusting 6 3.3
2017-Dec-12 12:00 335 2 gusting 6 3.3
2017-Dec-12 11:50 341 3 gusting 9 3.3
2017-Dec-12 11:40 340 2 gusting 8 3.9
2017-Dec-12 11:30 344 3 gusting 7 3.3
2017-Dec-12 11:20 344 2 gusting 7 3.3
2017-Dec-12 11:10 320 2 gusting 6 3.9
2017-Dec-12 11:00 321 1 gusting 5 3.9
2017-Dec-12 10:50 305 1 gusting 4 3.9
2017-Dec-12 09:10 199 2 gusting 6 1.1
2017-Dec-12 09:00 204 4 gusting 7 1.1
2017-Dec-12 08:50 203 4 gusting 6 0.6
2017-Dec-12 08:40 201 3 gusting 6 0.6
2017-Dec-12 08:30 203 4 gusting 6 0.6
2017-Dec-12 08:20 208 3 gusting 6 -0.0
2017-Dec-12 08:10 208 2 gusting 6 -0.0
2017-Dec-12 08:00 221 2 gusting 4 -0.6
2017-Dec-12 07:50 206 3 gusting 5 -1.1
2017-Dec-12 07:40 203 4 gusting 6 -1.7
2017-Dec-12 07:30 196 1 gusting 6 -1.1
2017-Dec-12 07:20 192 -0.6
2017-Dec-12 07:10 202 2 gusting 5 -0.6
2017-Dec-12 07:00 215 2 gusting 5 -1.1
2017-Dec-12 06:50 211 2 gusting 5 -1.1
2017-Dec-12 06:40 247 0 gusting 5 -1.1
2017-Dec-12 06:30 235 0 gusting 3 -1.1
2017-Dec-12 06:20 267 0 gusting 4 -1.1
2017-Dec-12 06:10 262 0 gusting 3 -1.1
2017-Dec-12 06:00 250 -1.1
2017-Dec-12 05:50 263 0 gusting 2 -1.1
2017-Dec-12 05:40 272 -1.1
2017-Dec-12 05:30 272 -1.1
2017-Dec-12 05:20 271 0 gusting 2 -1.1
2017-Dec-12 05:10 274 -1.1
2017-Dec-12 05:00 273 -1.1
2017-Dec-12 04:50 269 -1.1
2017-Dec-12 04:40 270 -1.1
2017-Dec-12 04:30 265 -1.1
2017-Dec-12 04:20 272 -1.1
2017-Dec-12 04:10 266 0 gusting 5 -1.1
2017-Dec-12 04:00 255 0 gusting 4 -1.1
2017-Dec-12 03:50 268 1 gusting 6 -1.1
2017-Dec-12 03:40 256 0 gusting 5 -1.1
2017-Dec-12 03:30 257 1 gusting 4 -1.1
2017-Dec-12 03:20 260 1 gusting 3 -1.1
2017-Dec-12 03:10 263 0 gusting 4 -1.1
2017-Dec-12 03:00 300 0 gusting 4 -1.1
2017-Dec-12 02:50 294 0 gusting 5 -1.1
2017-Dec-12 02:40 296 0 gusting 3 -1.1
2017-Dec-12 02:30 305 0 gusting 4 -1.1
2017-Dec-12 02:20 297 1 gusting 6 -1.1
2017-Dec-12 02:10 302 1 gusting 5 -1.1
2017-Dec-12 02:00 302 1 gusting 5 -1.1
2017-Dec-12 01:50 300 1 gusting 5 -1.1
2017-Dec-12 01:40 302 1 gusting 6 -0.6
2017-Dec-12 01:30 299 0 gusting 5 -0.6
2017-Dec-12 01:20 293 1 gusting 6 -0.6
2017-Dec-12 01:10 301 2 gusting 6 -0.6
2017-Dec-12 01:00 300 2 gusting 6 -1.1
2017-Dec-12 00:50 316 2 gusting 8 -0.6
2017-Dec-12 00:40 317 3 gusting 8 -0.6
2017-Dec-12 00:30 313 2 gusting 6 -0.6
2017-Dec-12 00:20 306 2 gusting 5 -0.6
2017-Dec-12 00:10 312 1 gusting 6 -0.6
2017-Dec-12 00:00 303 1 gusting 6 -0.6
2017-Dec-11 23:50 310 2 gusting 6 -0.6
2017-Dec-11 23:40 314 4 gusting 10 -0.6
2017-Dec-11 23:30 315 4 gusting 9 -0.6
2017-Dec-11 23:20 318 2 gusting 6 -0.6
2017-Dec-11 23:10 314 1 gusting 6 -0.6
2017-Dec-11 23:00 315 3 gusting 8 -0.6
2017-Dec-11 22:50 317 4 gusting 8 -0.0
2017-Dec-11 22:40 321 4 gusting 9 -0.0
2017-Dec-11 22:30 320 4 gusting 8 -0.0
2017-Dec-11 22:20 322 4 gusting 9 -0.0
2017-Dec-11 22:10 325 4 gusting 11 -0.0
2017-Dec-11 22:00 320 5 gusting 13 -0.0
2017-Dec-11 21:50 316 4 gusting 10 -0.0
2017-Dec-11 21:40 316 3 gusting 7 -0.0
2017-Dec-11 21:30 320 3 gusting 11 0.6
2017-Dec-11 21:20 331 4 gusting 10 0.6
2017-Dec-11 21:10 338 5 gusting 10 1.1
2017-Dec-11 21:00 333 5 gusting 13 1.1
2017-Dec-11 20:50 331 4 gusting 10 1.1
2017-Dec-11 20:40 335 5 gusting 13 1.1
2017-Dec-11 20:30 339 6 gusting 13 1.7
2017-Dec-11 20:20 339 6 gusting 13 1.7
2017-Dec-11 20:10 336 6 gusting 14 2.2
2017-Dec-11 20:00 333 6 gusting 14 2.2
2017-Dec-11 19:50 334 6 gusting 14 2.2
2017-Dec-11 19:40 335 6 gusting 15 2.2
2017-Dec-11 19:30 319 5 gusting 13 2.8
2017-Dec-11 19:20 318 5 gusting 10 2.2
2017-Dec-11 19:10 306 4 gusting 12 2.2
2017-Dec-11 19:00 303 2 gusting 7 2.2
2017-Dec-11 18:50 301 2 gusting 8 2.2
2017-Dec-11 18:10 313 2 gusting 9 2.2
2017-Dec-11 18:00 288 1 gusting 6 2.2
2017-Dec-11 17:50 213 0 gusting 3 2.8
2017-Dec-11 17:40 198 1 gusting 4 2.8
2017-Dec-11 17:30 242 1 gusting 6 2.8
2017-Dec-11 17:20 257 1 gusting 6 2.8
2017-Dec-11 17:10 257 2 gusting 7 3.3
2017-Dec-11 17:00 222 0 gusting 6 3.3
2017-Dec-11 16:50 214 2 gusting 6 3.3
2017-Dec-11 16:40 203 3 gusting 6 3.3
2017-Dec-11 16:30 206 2 gusting 6 3.9
2017-Dec-11 16:20 218 1 gusting 5 3.9
2017-Dec-11 16:10 230 2 gusting 6 3.9
2017-Dec-11 16:00 203 3 gusting 9 3.9
2017-Dec-11 15:50 202 4 gusting 12 4.4
2017-Dec-11 15:40 205 3 gusting 6 4.4
2017-Dec-11 15:30 201 5 gusting 9 4.4
2017-Dec-11 15:20 204 2 gusting 6 4.4
2017-Dec-11 15:10 203 5 gusting 8 5.0
2017-Dec-11 15:00 200 4 gusting 9 5.0
2017-Dec-11 14:50 208 2 gusting 6 5.6
2017-Dec-11 14:40 194 2 gusting 6 5.6
2017-Dec-11 14:30 208 5 gusting 10 5.6
2017-Dec-11 14:20 202 4 gusting 10 5.6
2017-Dec-11 14:10 202 5 gusting 11 5.6
2017-Dec-11 14:00 204 6 gusting 13 5.6
2017-Dec-11 13:50 209 3 gusting 8 5.6
2017-Dec-11 13:40 203 5 gusting 13 5.6
2017-Dec-11 13:30 210 5 gusting 13 6.1
2017-Dec-11 13:20 213 5 gusting 12 5.0
2017-Dec-11 13:10 210 6 gusting 13 5.0
2017-Dec-11 13:00 204 8 gusting 15 5.0
2017-Dec-11 12:50 206 6 gusting 13 5.6
2017-Dec-11 12:40 204 6 gusting 13 5.6
2017-Dec-11 12:30 200 7 gusting 13 5.0
2017-Dec-11 12:20 201 6 gusting 13 5.0
2017-Dec-11 12:10 203 6 gusting 14 4.4
2017-Dec-11 12:00 202 6 gusting 14 4.4
2017-Dec-11 11:50 202 7 gusting 13 3.9
2017-Dec-11 11:40 200 8 gusting 15 3.9
2017-Dec-11 11:30 204 6 gusting 13 3.9
2017-Dec-11 11:20 207 6 gusting 15 4.4
2017-Dec-11 11:10 204 6 gusting 13 4.4
2017-Dec-11 11:00 205 6 gusting 13 4.4
2017-Dec-11 10:50 204 6 gusting 13 3.9
2017-Dec-11 10:40 209 6 gusting 13 3.9
2017-Dec-11 10:30 208 6 gusting 14 4.4
2017-Dec-11 10:20 206 6 gusting 13 3.9
2017-Dec-11 10:10 223 4 gusting 10 3.9
2017-Dec-11 10:00 235 3 gusting 9 2.8
2017-Dec-11 09:50 217 3 gusting 7 2.8
2017-Dec-11 09:40 225 4 gusting 17 2.8
2017-Dec-11 09:30 221 5 gusting 13 3.3
2017-Dec-11 09:20 224 5 gusting 12 3.3
2017-Dec-11 09:10 229 5 gusting 12 3.3
2017-Dec-11 09:00 224 4 gusting 10 2.8
2017-Dec-11 08:50 246 3 gusting 10 2.2
2017-Dec-11 08:40 238 3 gusting 9 2.2
2017-Dec-11 08:30 253 4 gusting 8 2.2
2017-Dec-11 08:20 246 5 gusting 11 2.2
2017-Dec-11 08:10 237 4 gusting 13 2.2
2017-Dec-11 08:00 243 4 gusting 9 2.8
2017-Dec-11 07:50 223 4 gusting 9 2.8
2017-Dec-11 07:40 209 4 gusting 9 2.8
2017-Dec-11 07:30 219 4 gusting 10 2.8
2017-Dec-11 07:20 234 4 gusting 10 2.8
2017-Dec-11 07:10 219 5 gusting 13 2.8
2017-Dec-11 07:00 207 6 gusting 16 2.8
2017-Dec-11 06:50 202 6 gusting 14 2.8
2017-Dec-11 06:40 202 6 gusting 13 2.8
2017-Dec-11 06:30 204 6 gusting 13 2.8
2017-Dec-11 06:20 200 6 gusting 13 3.3
2017-Dec-11 06:10 201 6 gusting 17 3.3
2017-Dec-11 06:00 200 6 gusting 15 3.3
2017-Dec-11 05:50 202 6 gusting 13 3.3
2017-Dec-11 05:40 207 5 gusting 11 3.3
2017-Dec-11 05:30 203 4 gusting 9 3.3
2017-Dec-11 05:20 202 5 gusting 9 3.3
2017-Dec-11 05:10 204 5 gusting 10 3.3
2017-Dec-11 05:00 202 5 gusting 12 3.3
2017-Dec-11 04:50 200 5 gusting 9 2.8
2017-Dec-11 04:40 202 6 gusting 10 2.8
2017-Dec-11 04:30 201 5 gusting 11 2.8
2017-Dec-11 04:20 203 5 gusting 6 2.2
2017-Dec-11 04:10 196 5 gusting 8 2.2
2017-Dec-11 04:00 195 6 gusting 10 2.2
2017-Dec-11 03:50 194 6 gusting 13 2.2
2017-Dec-11 03:40 199 5 gusting 8 2.2
2017-Dec-11 03:30 197 3 gusting 7 2.2
2017-Dec-11 03:20 198 5 gusting 10 2.8
2017-Dec-11 03:10 199 5 gusting 13 2.8
2017-Dec-11 03:00 202 5 gusting 9 3.3
2017-Dec-11 02:50 206 4 gusting 9 3.3
2017-Dec-11 02:40 200 5 gusting 10 3.3
2017-Dec-11 02:30 200 6 gusting 13 3.3
2017-Dec-11 02:20 197 4 gusting 7 3.3
2017-Dec-11 02:10 196 3 gusting 7 2.8
2017-Dec-11 02:00 189 4 gusting 6 2.8
2017-Dec-11 01:50 192 4 gusting 11 3.3
2017-Dec-11 01:40 200 7 gusting 14 3.3
2017-Dec-11 01:30 218 6 gusting 13 4.4
2017-Dec-11 01:20 260 5 gusting 13 5.0
2017-Dec-11 01:10 244 5 gusting 14 6.7
2017-Dec-11 01:00 212 6 gusting 16 8.9
2017-Dec-11 00:50 196 12 gusting 21 9.4
2017-Dec-11 00:40 198 13 gusting 22 9.4
2017-Dec-11 00:30 193 13 gusting 24 9.4
2017-Dec-11 00:20 194 13 gusting 23 9.4
2017-Dec-11 00:10 192 14 gusting 26 9.4
2017-Dec-11 00:00 191 13 gusting 28 9.4
2017-Dec-10 23:50 194 13 gusting 22 9.4
2017-Dec-10 23:40 192 13 gusting 27 9.4
2017-Dec-10 23:30 193 12 gusting 20 9.4
2017-Dec-10 23:20 192 11 gusting 19 9.4
2017-Dec-10 23:10 192 12 gusting 20 9.4
2017-Dec-10 23:00 193 12 gusting 19 9.4
2017-Dec-10 22:50 193 9 gusting 19 8.9
2017-Dec-10 22:40 194 6 gusting 16 8.9
2017-Dec-10 22:30 196 6 gusting 13 8.9
2017-Dec-10 22:20 191 8 gusting 18 10.0
2017-Dec-10 22:10 192 9 gusting 21 10.0
2017-Dec-10 22:00 192 10 gusting 19 10.0
2017-Dec-10 21:50 192 11 gusting 19 10.0
2017-Dec-10 21:40 189 12 gusting 22 10.0
2017-Dec-10 21:30 186 13 gusting 19 10.0
2017-Dec-10 21:20 184 13 gusting 25 10.0
2017-Dec-10 21:10 181 9 gusting 17 10.0
2017-Dec-10 21:00 173 5 gusting 12 9.4
2017-Dec-10 20:50 180 5 gusting 11 9.4
2017-Dec-10 20:40 181 6 gusting 13 9.4
2017-Dec-10 20:30 183 6 gusting 13 9.4
2017-Dec-10 20:20 184 10 gusting 16 9.4
2017-Dec-10 20:10 182 8 gusting 13 8.9
2017-Dec-10 20:00 179 6 gusting 13 8.9